DL9BGG-13 Weather Reports


time (UTC)temp
F
wind
direction
speed
knots
gust
knots
rain 1hr
in
rain 24hr
in
rain mn
in
humidity
%
barometer
mb
20260901132025 69 292 5.2 0.0 0.00 0.45 0.00 64 1062.6
20260901131910 69 270 4.3 0.0 0.00 0.45 0.00 64 1062.6
20260901131757 69 292 7.8 0.0 0.00 0.45 0.00 64 1062.6
20260901131638 69 292 6.1 0.0 0.00 0.45 0.00 65 1062.7
20260901131533 69 270 0.0 0.0 0.00 0.45 0.00 65 1062.6
20260901131426 69 0 0.0 0.0 0.00 0.45 0.00 64 1062.6
20260901131306 69 292 3.5 0.0 0.00 0.45 0.00 65 1062.7
20260901131200 69 315 8.7 0.0 0.00 0.45 0.00 65 1062.7
20260901131055 69 315 4.3 0.0 0.00 0.45 0.00 65 1062.7
20260901130942 69 292 8.7 0.0 0.00 0.45 0.00 65 1062.6
20260901130830 69 270 5.2 0.0 0.00 0.45 0.00 64 1062.6
20260901130726 69 270 0.0 0.0 0.00 0.45 0.00 64 1062.5
20260901130610 69 0 3.5 0.0 0.00 0.45 0.00 64 1062.6
20260901130456 70 292 13.9 0.0 0.00 0.45 0.00 63 1062.6
20260901130345 70 270 9.6 0.0 0.00 0.45 0.00 63 1062.6
20260901130230 70 315 11.3 0.0 0.00 0.45 0.00 62 1062.6
20260901130109 70 292 6.1 0.0 0.00 0.45 0.00 61 1062.5
20260901125956 70 337 0.0 0.0 0.00 0.45 0.00 61 1062.5
20260901125843 70 315 4.3 0.0 0.00 0.45 0.00 61 1062.6
20260901125722 70 315 9.6 0.0 0.00 0.45 0.00 62 1062.5
20260901125553 70 315 12.2 0.0 0.00 0.45 0.00 62 1062.6
20260901125441 70 292 8.7 0.0 0.00 0.45 0.00 63 1062.5
20260901125312 70 315 5.2 0.0 0.00 0.45 0.00 62 1062.6
20260901125152 70 315 2.6 0.0 0.00 0.45 0.00 62 1062.5
20260901125037 70 270 7.0 0.0 0.00 0.45 0.00 62 1062.5
20260901124915 71 225 5.2 0.0 0.00 0.45 0.00 62 1062.5
20260901124755 71 292 4.3 0.0 0.00 0.45 0.00 61 1062.6
20260901124648 71 292 10.4 0.0 0.00 0.45 0.00 61 1062.5
20260901124528 71 315 7.8 0.0 0.00 0.45 0.00 60 1062.5
20260901124421 71 292 3.5 0.0 0.00 0.45 0.00 60 1062.5
20260901124302 71 0 9.6 0.0 0.00 0.45 0.00 60 1062.4
20260901124155 71 292 9.6 0.0 0.00 0.45 0.00 60 1062.5
20260901124043 71 315 9.6 0.0 0.00 0.45 0.00 60 1062.5
20260901123930 71 315 3.5 0.0 0.00 0.45 0.00 59 1062.5
20260901123825 71 337 2.6 0.0 0.00 0.45 0.00 58 1062.6
20260901123711 71 292 7.0 0.0 0.00 0.45 0.00 58 1062.5
20260901123558 71 315 11.3 0.0 0.00 0.45 0.00 58 1062.6
20260901123445 72 292 5.2 0.0 0.00 0.45 0.00 59 1062.5
20260901123332 72 270 10.4 0.0 0.00 0.45 0.00 60 1062.5
20260901123218 72 292 8.7 0.0 0.00 0.45 0.00 59 1062.5
20260901123107 72 292 6.1 0.0 0.00 0.45 0.00 59 1062.6
20260901123001 72 292 2.6 0.0 0.00 0.45 0.00 58 1062.5
20260901122839 72 247 10.4 0.0 0.00 0.45 0.00 58 1062.5
20260901122720 72 292 3.5 0.0 0.00 0.45 0.00 57 1062.5
20260901122608 72 247 8.7 0.0 0.00 0.45 0.00 58 1062.5
20260901122500 72 270 6.1 0.0 0.00 0.45 0.00 57 1062.5
20260901122347 72 315 5.2 0.0 0.00 0.45 0.00 56 1062.6
20260901122241 72 337 5.2 0.0 0.00 0.45 0.00 56 1062.6
20260901122115 72 315 13.0 0.0 0.00 0.45 0.00 57 1062.5
20260901122007 72 292 11.3 0.0 0.00 0.45 0.00 56 1062.6
20260901121841 73 270 13.0 0.0 0.00 0.45 0.00 56 1062.5
20260901121735 73 315 4.3 0.0 0.00 0.45 0.00 56 1062.6
20260901121629 73 292 9.6 0.0 0.00 0.45 0.00 57 1062.5
20260901121524 73 292 7.0 0.0 0.00 0.45 0.00 57 1062.6
20260901121410 73 292 0.0 0.0 0.00 0.45 0.00 58 1062.5
20260901121257 73 247 6.1 0.0 0.00 0.45 0.00 57 1062.5
20260901121152 73 247 7.8 0.0 0.00 0.45 0.00 58 1062.5
20260901121039 73 0 4.3 0.0 0.00 0.45 0.00 59 1062.5
20260901120918 73 292 6.1 0.0 0.00 0.45 0.00 60 1062.5
20260901120759 73 270 5.2 0.0 0.00 0.45 0.00 61 1062.5
20260901120654 73 270 5.2 0.0 0.00 0.45 0.00 61 1062.5
20260901120543 73 292 3.5 0.0 0.00 0.45 0.00 61 1062.5
20260901120437 73 292 5.2 0.0 0.00 0.45 0.00 61 1062.5
20260901120326 72 247 11.3 0.0 0.00 0.45 0.00 62 1062.5
20260901120218 72 315 7.8 0.0 0.00 0.45 0.00 62 1062.5
20260901120103 72 292 7.8 0.0 0.00 0.45 0.00 62 1062.5
20260901115935 72 315 4.3 0.0 0.00 0.45 0.00 62 1062.4
20260901115813 72 337 6.1 0.0 0.00 0.45 0.00 62 1062.6
20260901115653 72 270 1.7 0.0 0.00 0.45 0.00 63 1062.5
20260901115540 72 337 4.3 0.0 0.00 0.45 0.00 63 1062.4
20260901115436 72 292 4.3 0.0 0.00 0.45 0.00 63 1062.4
20260901115330 72 270 13.0 0.0 0.00 0.45 0.00 62 1062.4
20260901115210 72 315 5.2 0.0 0.00 0.45 0.00 62 1062.4
20260901115104 72 315 5.2 0.0 0.00 0.45 0.00 62 1062.5
20260901114951 72 337 5.2 0.0 0.00 0.45 0.00 62 1062.5
20260901114838 72 292 7.8 0.0 0.00 0.45 0.00 62 1062.5
20260901114732 72 337 10.4 0.0 0.00 0.45 0.00 62 1062.4
20260901114618 72 292 5.2 0.0 0.00 0.45 0.00 62 1062.4
20260901114458 72 315 7.0 0.0 0.00 0.45 0.00 63 1062.4
20260901114336 72 292 6.1 0.0 0.00 0.45 0.00 63 1062.3
20260901114225 72 315 3.5 0.0 0.00 0.45 0.00 64 1062.3
20260901114118 72 337 6.1 0.0 0.00 0.45 0.00 66 1062.4
20260901113958 71 0 2.6 0.0 0.00 0.45 0.00 65 1062.3
20260901113853 71 270 3.5 0.0 0.00 0.45 0.00 65 1062.4
20260901113732 71 315 10.4 0.0 0.00 0.45 0.00 65 1062.4
20260901113617 71 315 4.3 0.0 0.00 0.45 0.00 65 1062.4
20260901113503 71 0 3.5 0.0 0.00 0.45 0.00 65 1062.4
20260901113344 71 292 5.2 0.0 0.00 0.45 0.00 66 1062.4
20260901113237 71 270 11.3 0.0 0.00 0.45 0.00 68 1062.4
20260901113051 69 337 99.1 0.0 0.00 0.45 0.00 70 1062.4
20260901112439 69 337 2.6 0.0 0.00 0.45 0.00 70 1062.3
20260901112333 69 315 6.1 0.0 0.00 0.45 0.00 70 1062.2
20260901112211 68 337 3.5 0.0 0.00 0.45 0.00 70 1062.2
20260901112058 69 292 3.5 0.0 0.00 0.45 0.00 70 1062.2
20260901111953 68 337 5.2 0.0 0.00 0.45 0.00 71 1062.1
20260901111743 67 247 99.1 0.0 0.00 0.45 0.00 74 1062.1
20260901111129 67 247 99.1 0.0 0.02 0.45 0.00 75 1062.1
20260901110526 67 247 99.1 0.0 0.02 0.45 0.00 78 1062.0
20260901105902 66 247 99.1 0.0 0.02 0.45 0.00 81 1062.0
20260901105247 65 247 99.1 0.0 0.02 0.45 0.00 83 1061.9
20260901104601 64 247 99.1 0.0 0.04 0.45 0.00 86 1061.8
20260901103931 63 247 99.1 0.0 0.06 0.45 0.00 88 1061.9
20260901103317 62 247 99.1 0.0 0.06 0.45 0.00 90 1061.8
20260901102658 62 247 99.1 0.0 0.08 0.45 0.00 91 1061.7
20260901102049 61 247 99.1 0.0 0.08 0.45 0.00 91 1061.7
20260901101428 61 247 5.2 0.0 0.06 0.43 0.00 91 1061.6
20260901101322 61 202 4.3 0.0 0.06 0.43 0.00 91 1061.5
20260901101145 61 292 7.8 0.0 0.06 0.43 0.00 91 1061.5
20260901100959 61 270 4.3 0.0 0.06 0.43 0.00 91 1061.5
20260901100852 61 247 5.2 0.0 0.06 0.43 0.00 91 1061.5
20260901100738 61 270 7.8 0.0 0.06 0.43 0.00 91 1061.5
20260901100617 61 225 2.6 0.0 0.06 0.43 0.00 91 1061.5
20260901100505 61 292 3.5 0.0 0.06 0.43 0.00 91 1061.5
20260901100357 61 315 12.2 0.0 0.06 0.43 0.00 90 1061.5
20260901100246 61 225 12.2 0.0 0.06 0.43 0.00 90 1061.5
20260901100139 61 270 11.3 0.0 0.06 0.43 0.00 90 1061.5
20260901100025 61 247 0.9 0.0 0.06 0.43 0.00 90 1061.5
20260901095913 61 247 3.5 0.0 0.06 0.43 0.00 91 1061.5
20260901095759 61 247 8.7 0.0 0.06 0.43 0.00 91 1061.5
20260901095652 61 270 8.7 0.0 0.06 0.43 0.00 91 1061.5
20260901095523 61 247 7.8 0.0 0.06 0.43 0.00 90 1061.5
20260901095411 61 247 10.4 0.0 0.06 0.43 0.00 90 1061.4
20260901095306 61 247 13.0 0.0 0.06 0.43 0.00 90 1061.5
20260901095159 61 292 5.2 0.0 0.06 0.43 0.00 90 1061.4
20260901095053 61 292 5.2 0.0 0.04 0.41 0.00 90 1061.4
20260901094947 62 270 11.3 0.0 0.04 0.41 0.00 90 1061.5
20260901094827 62 337 7.0 0.0 0.04 0.41 0.00 90 1061.4
20260901094720 62 270 9.6 0.0 0.04 0.41 0.00 90 1061.3
20260901094606 62 225 5.2 0.0 0.04 0.41 0.00 90 1061.4
20260901094453 62 292 7.0 0.0 0.04 0.41 0.00 90 1061.3
20260901094342 62 247 6.1 0.0 0.02 0.39 0.00 89 1061.3
20260901094230 62 270 9.6 0.0 0.02 0.39 0.00 89 1061.3
20260901094104 62 292 11.3 0.0 0.02 0.39 0.00 89 1061.4
20260901093950 62 292 10.4 0.0 0.02 0.39 0.00 89 1061.4
20260901093838 62 247 4.3 0.0 0.02 0.39 0.00 88 1061.3
20260901093725 62 225 5.2 0.0 0.02 0.39 0.00 88 1061.3
20260901093612 62 247 4.3 0.0 0.02 0.39 0.00 88 1061.3
20260901093506 62 157 0.0 0.0 0.00 0.37 0.00 87 1061.4
20260901093346 62 270 4.3 0.0 0.00 0.37 0.00 87 1061.3
20260901093241 62 247 9.6 0.0 0.00 0.37 0.00 87 1061.3
20260901093135 62 270 7.8 0.0 0.00 0.37 0.00 87 1061.4
20260901093022 63 247 5.2 0.0 0.00 0.37 0.00 86 1061.4
20260901092902 63 270 8.7 0.0 0.00 0.37 0.00 86 1061.4
20260901092740 63 247 7.0 0.0 0.00 0.37 0.00 85 1061.4
20260901092618 63 270 5.2 0.0 0.00 0.37 0.00 84 1061.4
20260901092449 64 270 4.3 0.0 0.00 0.37 0.00 82 1061.4
20260901092328 64 315 5.2 0.0 0.00 0.37 0.00 82 1061.5
20260901092216 64 270 5.2 0.0 0.00 0.37 0.00 81 1061.4
20260901092100 65 292 4.3 0.0 0.00 0.37 0.00 80 1061.5
20260901091954 65 315 5.2 0.0 0.00 0.37 0.00 79 1061.5
20260901091848 66 315 7.8 0.0 0.00 0.37 0.00 78 1061.4
20260901091719 66 135 0.0 0.0 0.00 0.37 0.00 77 1061.3
20260901091614 67 315 7.8 0.0 0.00 0.37 0.00 76 1061.3
20260901091500 67 292 7.8 0.0 0.00 0.37 0.00 75 1061.3
20260901091333 67 270 13.0 0.0 0.00 0.37 0.00 74 1061.3
20260901091226 68 292 8.7 0.0 0.00 0.37 0.00 72 1061.3
20260901091113 69 292 16.5 0.0 0.00 0.37 0.00 71 1061.3
20260901091001 69 247 15.6 0.0 0.00 0.37 0.00 71 1061.3
20260901090856 69 292 4.3 0.0 0.00 0.37 0.00 71 1061.2
20260901090749 70 270 7.8 0.0 0.00 0.37 0.00 71 1061.3
20260901090636 70 292 6.1 0.0 0.00 0.37 0.00 71 1061.2
20260901090524 71 292 12.2 0.0 0.00 0.37 0.00 70 1061.2
20260901090417 71 292 5.2 0.0 0.00 0.37 0.00 70 1061.2
20260901090248 71 292 4.3 0.0 0.00 0.37 0.00 70 1061.2
20260901090137 72 247 11.3 0.0 0.00 0.37 0.00 69 1061.2
20260901090029 72 292 9.6 0.0 0.00 0.37 0.00 68 1061.2
20260901085908 73 247 9.6 0.0 0.00 0.37 0.00 68 1061.3
20260901085757 73 270 3.5 0.0 0.00 0.37 0.00 67 1061.2
20260901085650 74 270 17.4 0.0 0.00 0.37 0.00 66 1061.2
20260901085531 74 292 12.2 0.0 0.02 0.37 0.00 66 1061.2
20260901085425 74 292 18.2 0.0 0.02 0.37 0.00 67 1061.1
20260901085320 73 292 6.1 0.0 0.02 0.37 0.00 68 1061.1
20260901085214 73 292 8.7 0.0 0.02 0.37 0.00 69 1061.1
20260901085045 72 270 10.4 0.0 0.02 0.37 0.00 71 1061.0
20260901084924 71 292 18.2 0.0 0.02 0.37 0.00 72 1061.1
20260901084803 71 315 13.0 0.0 0.02 0.37 0.00 74 1061.1
20260901084658 70 292 3.5 0.0 0.02 0.37 0.00 75 1061.1
20260901084545 69 292 15.6 0.0 0.02 0.37 0.00 77 1060.9
20260901084439 68 337 11.3 0.0 0.02 0.37 0.00 78 1061.0
20260901084325 67 247 7.8 0.0 0.02 0.37 0.00 78 1061.0
20260901084212 67 247 7.8 0.0 0.02 0.37 0.00 78 1060.9
20260901084059 67 247 11.3 0.0 0.02 0.37 0.00 78 1061.0
20260901083945 67 270 4.3 0.0 0.02 0.37 0.00 77 1061.0
20260901083832 67 225 5.2 0.0 0.02 0.37 0.00 77 1061.0
20260901083703 67 315 7.0 0.0 0.02 0.37 0.00 77 1060.9
20260901083552 68 270 5.2 0.0 0.02 0.37 0.00 77 1060.9
20260901083446 68 270 5.2 0.0 0.02 0.37 0.00 77 1060.8
20260901083343 68 292 8.7 0.0 0.02 0.37 0.00 78 1060.9
20260901083221 68 225 6.1 0.0 0.02 0.37 0.00 79 1060.8
20260901083106 69 270 6.1 0.0 0.02 0.37 0.00 78 1060.9
20260901082937 69 270 11.3 0.0 0.02 0.37 0.00 78 1060.7
20260901082821 69 270 7.8 0.0 0.02 0.37 0.00 78 1060.7
20260901082707 68 247 12.2 0.0 0.02 0.37 0.00 78 1060.6
20260901082554 68 270 12.2 0.0 0.02 0.37 0.00 79 1060.7
20260901082449 68 292 7.0 0.0 0.02 0.37 0.00 79 1060.7
20260901082333 68 247 7.0 0.0 0.02 0.37 0.00 81 1060.7
20260901082221 68 247 8.7 0.0 0.02 0.37 0.00 81 1060.6
20260901082115 68 247 7.0 0.0 0.02 0.37 0.00 81 1060.6
20260901082002 68 292 13.9 0.0 0.02 0.37 0.00 81 1060.7
20260901081849 68 292 11.3 0.0 0.02 0.37 0.00 81 1060.7
20260901081738 68 270 10.4 0.0 0.02 0.37 0.00 81 1060.7
20260901081631 68 270 5.2 0.0 0.02 0.37 0.00 81 1060.6
20260901081518 68 315 7.8 0.0 0.02 0.37 0.00 81 1060.6
20260901081413 68 270 11.3 0.0 0.02 0.37 0.00 81 1060.6
20260901081300 67 270 5.2 0.0 0.02 0.37 0.00 82 1060.6
20260901081147 67 292 5.2 0.0 0.02 0.37 0.00 82 1060.6
20260901081034 67 225 7.8 0.0 0.02 0.37 0.00 82 1060.6
20260901080921 67 270 4.3 0.0 0.02 0.37 0.00 82 1060.6
20260901080816 67 270 1.7 0.0 0.02 0.37 0.00 82 1060.5
20260901080711 67 247 3.5 0.0 0.02 0.37 0.00 82 1060.5
20260901080605 67 270 5.2 0.0 0.02 0.37 0.00 82 1060.5
20260901080452 67 270 7.8 0.0 0.02 0.37 0.00 82 1060.5
20260901080339 67 292 4.3 0.0 0.02 0.37 0.00 82 1060.5
20260901080234 67 270 5.2 0.0 0.02 0.37 0.00 82 1060.5
20260901080121 67 270 6.1 0.0 0.02 0.37 0.00 82 1060.5
20260901080008 67 247 5.2 0.0 0.02 0.37 0.00 81 1060.5
20260901075854 68 270 1.7 0.0 0.02 0.37 0.00 81 1060.5
20260901075733 68 247 2.6 0.0 0.02 0.37 0.00 81 1060.5
20260901075621 68 247 7.8 0.0 0.00 0.35 0.00 81 1060.5
20260901075459 68 247 9.6 0.0 0.00 0.35 0.00 81 1060.5
20260901075338 68 292 7.0 0.0 0.00 0.35 0.00 81 1060.5
20260901075233 68 247 7.0 0.0 0.00 0.35 0.00 83 1060.5
20260901075120 68 270 4.3 0.0 0.00 0.35 0.00 83 1060.5
20260901075009 68 292 3.5 0.0 0.00 0.35 0.00 83 1060.4
20260901074903 67 292 0.0 0.0 0.00 0.35 0.00 83 1060.5
20260901074756 67 247 5.2 0.0 0.00 0.35 0.00 83 1060.5
20260901074646 67 270 9.6 0.0 0.00 0.35 0.00 84 1060.5
20260901074539 67 247 6.1 0.0 0.00 0.35 0.00 84 1060.5
20260901074426 67 292 4.3 0.0 0.00 0.35 0.00 84 1060.4
20260901074319 66 247 4.3 0.0 0.00 0.35 0.00 84 1060.5
20260901074020 66 270 4.3 0.0 0.00 0.35 0.00 84 1060.4
20260901073909 66 270 7.0 0.0 0.00 0.35 0.00 85 1060.4
20260901073802 66 247 7.0 0.0 0.00 0.35 0.00 85 1060.4
20260901073633 66 270 5.2 0.0 0.00 0.35 0.00 84 1060.4
20260901073422 66 270 6.1 0.0 0.00 0.35 0.00 84 1060.3
20260901073301 66 247 5.2 0.0 0.00 0.35 0.00 84 1060.4
20260901072753 66 292 99.1 0.0 0.00 0.35 0.00 81 1060.3
20260901072123 67 292 99.1 0.0 0.00 0.35 0.00 79 1060.2
20260901071507 67 270 8.7 0.0 0.00 0.35 0.00 79 1060.2
20260901071337 67 270 3.5 0.0 0.00 0.35 0.00 78 1060.2
20260901071216 68 270 3.5 0.0 0.00 0.35 0.00 78 1060.2
20260901071103 68 270 3.5 0.0 0.00 0.35 0.00 77 1060.3
20260901070949 69 292 5.2 0.0 0.00 0.35 0.00 76 1060.2
20260901070821 69 270 5.2 0.0 0.00 0.35 0.00 76 1060.2
20260901070717 69 270 4.3 0.0 0.00 0.35 0.00 76 1060.2
20260901070610 70 225 0.0 0.0 0.00 0.35 0.00 76 1060.2
20260901070449 70 270 5.2 0.0 0.00 0.35 0.00 77 1060.2
20260901070238 68 247 99.1 0.0 0.00 0.35 0.00 82 1060.3
20260901065608 66 247 99.1 0.0 0.00 0.37 0.00 84 1060.2
20260901064938 67 247 99.1 0.0 0.00 0.37 0.00 83 1060.2
20260901064308 67 247 99.1 0.0 0.00 0.37 0.00 83 1060.2
20260901063702 68 247 99.1 0.0 0.00 0.37 0.00 83 1060.1
20260901063024 68 247 99.1 0.0 0.00 0.37 0.00 85 1060.1
20260901062354 68 247 99.1 0.0 0.00 0.37 0.00 85 1060.1
20260901061751 67 247 99.1 0.0 0.00 0.37 0.00 90 1060.0
20260901061135 65 247 99.1 0.0 0.00 0.37 0.00 93 1059.9
20260901060519 62 247 99.1 0.0 0.02 0.37 0.00 93 1059.8
20260901055841 62 247 99.1 0.0 0.02 0.37 0.00 93 1059.9
20260901055211 62 247 99.1 0.0 0.02 0.37 0.00 93 1059.8
20260901054549 62 247 99.1 0.0 0.02 0.37 0.00 93 1059.7
20260901053912 62 247 99.1 0.0 0.02 0.37 0.00 92 1059.7
20260901053241 62 247 99.1 0.0 0.02 0.37 0.00 92 1059.6
20260901052612 62 247 99.1 0.0 0.02 0.37 0.00 92 1059.6
20260901051942 62 247 99.1 0.0 0.02 0.37 0.00 92 1059.4
20260901051311 62 247 99.1 0.0 0.02 0.37 0.00 92 1059.4
20260901050645 62 247 99.1 0.0 0.00 0.35 0.00 92 1059.4
20260901050044 62 247 99.1 0.0 0.00 0.35 0.00 92 1059.4
20260901045439 61 247 5.2 0.0 0.00 0.35 0.00 92 1059.3
20260901045319 61 270 0.9 0.0 0.00 0.35 0.00 91 1059.3
20260901045214 61 247 4.3 0.0 0.00 0.35 0.00 91 1059.2
20260901045108 61 270 6.1 0.0 0.00 0.35 0.00 91 1059.3
20260901044959 61 225 3.5 0.0 0.00 0.35 0.00 91 1059.2
20260901044845 61 247 5.2 0.0 0.00 0.35 0.00 91 1059.2
20260901044738 61 270 4.3 0.0 0.00 0.35 0.00 91 1059.2
20260901044624 61 270 5.2 0.0 0.00 0.35 0.00 91 1059.2
20260901044502 61 270 6.1 0.0 0.00 0.35 0.00 91 1059.3
20260901044347 61 270 3.5 0.0 0.00 0.35 0.00 91 1059.3
20260901044234 61 270 0.0 0.0 0.00 0.35 0.00 91 1059.4
20260901044129 61 270 2.6 0.0 0.00 0.35 0.00 91 1059.3
20260901044020 61 247 0.9 0.0 0.00 0.35 0.00 91 1059.3
20260901043859 61 225 2.6 0.0 0.00 0.35 0.00 91 1059.2
20260901043743 61 270 4.3 0.0 0.00 0.35 0.00 91 1059.3
20260901043623 61 247 1.7 0.0 0.00 0.35 0.00 91 1059.2
20260901043511 61 247 1.7 0.0 0.00 0.35 0.00 91 1059.3
20260901043403 61 225 1.7 0.0 0.00 0.35 0.00 90 1059.2
20260901043250 62 247 0.0 0.0 0.00 0.35 0.00 90 1059.2
20260901043147 61 270 0.9 0.0 0.00 0.35 0.00 90 1059.3
20260901043038 62 270 3.5 0.0 0.00 0.35 0.00 90 1059.3
20260901042916 62 270 3.5 0.0 0.00 0.35 0.00 90 1059.2
20260901042754 62 247 0.0 0.0 0.00 0.35 0.00 90 1059.2
20260901042633 62 270 2.6 0.0 0.00 0.35 0.00 89 1059.2
20260901042512 62 270 0.9 0.0 0.00 0.35 0.00 89 1059.2
20260901042351 62 247 3.5 0.0 0.00 0.35 0.00 89 1059.1
20260901042237 62 202 0.0 0.0 0.00 0.35 0.00 89 1059.2
20260901042124 62 247 0.0 0.0 0.00 0.35 0.00 89 1059.2
20260901042011 62 225 2.6 0.0 0.00 0.35 0.00 89 1059.2
20260901041852 62 202 4.3 0.0 0.00 0.35 0.00 89 1059.2
20260901041745 62 202 0.0 0.0 0.00 0.35 0.00 89 1059.2
20260901041632 62 225 0.0 0.0 0.00 0.35 0.00 88 1059.1
20260901041510 62 225 0.0 0.0 0.00 0.35 0.00 88 1059.2
20260901041350 62 247 0.0 0.0 0.00 0.35 0.00 88 1059.2
20260901041244 62 247 0.0 0.0 0.00 0.35 0.00 88 1059.1
20260901041130 62 247 0.0 0.0 0.00 0.35 0.00 88 1059.2
20260901041011 62 270 1.7 0.0 0.00 0.35 0.00 88 1059.2
20260901040904 62 247 4.3 0.0 0.00 0.35 0.00 88 1059.2
20260901040755 62 247 2.6 0.0 0.00 0.35 0.00 88 1059.2
20260901040630 62 270 6.1 0.0 0.00 0.35 0.00 88 1059.2
20260901040508 63 292 2.6 0.0 0.00 0.35 0.00 87 1059.2
20260901040340 63 225 1.7 0.0 0.00 0.35 0.00 87 1059.2
20260901040219 63 292 1.7 0.0 0.00 0.35 0.00 87 1059.1
20260901040106 62 292 5.2 0.0 0.00 0.35 0.00 86 1059.1
20260901035953 62 247 1.7 0.0 0.00 0.35 0.00 86 1059.1
20260901035839 62 247 7.0 0.0 0.00 0.35 0.00 85 1059.0
20260901035718 62 270 5.2 0.0 0.00 0.35 0.00 85 1059.0
20260901035603 62 270 6.1 0.0 0.00 0.35 0.00 86 1059.0
20260901035448 62 292 0.0 0.0 0.00 0.35 0.00 86 1059.0
20260901035320 63 315 3.5 0.0 0.00 0.35 0.00 86 1059.0
20260901035207 63 292 4.3 0.0 0.00 0.35 0.00 86 1059.0
20260901035102 63 270 2.6 0.0 0.00 0.35 0.00 87 1058.9
20260901034941 63 270 0.0 0.0 0.00 0.35 0.00 87 1058.9
20260901034829 63 292 4.3 0.0 0.00 0.35 0.00 87 1059.0
20260901034700 63 292 2.6 0.0 0.00 0.35 0.00 87 1059.0
20260901034539 63 270 4.3 0.0 0.00 0.35 0.00 87 1059.0
20260901034416 63 270 0.9 0.0 0.00 0.35 0.00 87 1059.0
20260901034311 63 315 3.5 0.0 0.00 0.35 0.00 87 1059.0
20260901034157 63 270 1.7 0.0 0.00 0.35 0.00 87 1059.0
20260901034044 63 270 3.5 0.0 0.00 0.35 0.00 87 1058.9
20260901033917 63 270 0.0 0.0 0.00 0.35 0.00 87 1059.0
20260901033812 63 270 4.3 0.0 0.00 0.35 0.00 86 1059.0
20260901033704 64 270 5.2 0.0 0.00 0.35 0.00 86 1059.0
20260901033552 64 270 3.5 0.0 0.00 0.35 0.00 86 1059.0
20260901033438 64 270 4.3 0.0 0.00 0.35 0.00 86 1059.0
20260901033317 64 270 0.0 0.0 0.00 0.35 0.00 86 1059.0
20260901033205 64 292 3.5 0.0 0.00 0.35 0.00 85 1059.0
20260901033057 64 292 5.2 0.0 0.00 0.35 0.00 85 1059.0
20260901032952 64 292 5.2 0.0 0.00 0.35 0.00 85 1059.0
20260901032845 64 292 5.2 0.0 0.00 0.35 0.00 85 1059.0
20260901032716 64 292 5.2 0.0 0.00 0.35 0.00 85 1058.9
20260901032603 64 315 0.0 0.0 0.00 0.35 0.00 85 1058.9
20260901032456 63 315 4.3 0.0 0.00 0.35 0.00 85 1058.9
20260901032335 64 292 2.6 0.0 0.00 0.35 0.00 85 1059.0
20260901032223 64 292 5.2 0.0 0.00 0.35 0.00 85 1058.9
20260901032116 64 292 6.1 0.0 0.00 0.35 0.00 85 1058.9
20260901032003 64 247 0.0 0.0 0.00 0.35 0.00 85 1058.9
20260901031850 64 270 1.7 0.0 0.00 0.35 0.00 85 1058.9
20260901031736 64 337 5.2 0.0 0.00 0.35 0.00 85 1058.9
20260901031623 64 270 4.3 0.0 0.00 0.35 0.00 86 1058.8
20260901031509 64 292 5.2 0.0 0.00 0.35 0.00 86 1058.8
20260901031403 64 0 5.2 0.0 0.00 0.35 0.00 85 1058.9
20260901031256 64 247 2.6 0.0 0.00 0.35 0.00 85 1058.9
20260901031143 64 292 0.0 0.0 0.00 0.35 0.00 85 1058.8
20260901031021 64 270 2.6 0.0 0.00 0.35 0.00 85 1058.8
20260901030908 64 315 1.7 0.0 0.00 0.35 0.00 85 1058.8
20260901030802 64 315 5.2 0.0 0.00 0.35 0.00 85 1058.8
20260901030657 64 337 2.6 0.0 0.00 0.35 0.00 85 1058.8
20260901030543 64 315 1.7 0.0 0.00 0.35 0.00 85 1058.8
20260901030431 64 315 3.5 0.0 0.00 0.35 0.00 85 1058.8
20260901030326 64 292 2.6 0.0 0.00 0.35 0.00 85 1058.8
20260901030211 64 337 4.3 0.0 0.00 0.35 0.00 85 1058.7
20260901030058 64 292 3.5 0.0 0.00 0.35 0.00 85 1058.8
20260901025953 63 292 2.6 0.0 0.00 0.35 0.00 85 1058.8
20260901025847 63 292 7.8 0.0 0.00 0.35 0.00 85 1058.7
20260901025742 63 337 4.3 0.0 0.00 0.35 0.00 85 1058.8
20260901025621 63 292 1.7 0.0 0.00 0.35 0.00 85 1058.8
20260901025508 63 247 4.3 0.0 0.00 0.35 0.00 85 1058.9
20260901025354 63 247 5.2 0.0 0.00 0.35 0.00 86 1058.9
20260901025241 63 315 7.0 0.0 0.00 0.35 0.00 86 1058.9
20260901025119 63 315 7.8 0.0 0.00 0.35 0.00 86 1058.9
20260901025006 63 315 7.0 0.0 0.00 0.35 0.00 86 1058.9
20260901024844 63 292 6.1 0.0 0.00 0.35 0.00 86 1058.8
20260901024726 63 337 3.5 0.0 0.00 0.35 0.00 86 1058.9
20260901024619 63 315 3.5 0.0 0.00 0.35 0.00 86 1058.8
20260901024505 63 337 6.1 0.0 0.00 0.35 0.00 86 1058.8
20260901024344 63 292 2.6 0.0 0.00 0.35 0.00 85 1058.9
20260901024231 63 315 6.1 0.0 0.00 0.35 0.00 85 1058.9
20260901024127 63 315 2.6 0.0 0.00 0.35 0.00 85 1058.8
20260901024013 63 270 6.1 0.0 0.00 0.35 0.00 85 1058.8
20260901023901 63 270 7.0 0.0 0.00 0.35 0.00 85 1058.9
20260901023755 63 247 5.2 0.0 0.00 0.35 0.00 85 1058.9
20260901023633 63 315 5.2 0.0 0.00 0.35 0.00 84 1058.8
20260901023527 63 315 5.2 0.0 0.00 0.35 0.00 84 1058.8
20260901023421 63 337 3.5 0.0 0.00 0.35 0.00 84 1058.8
20260901023315 63 292 7.0 0.0 0.00 0.35 0.00 84 1058.9
20260901023209 63 270 1.7 0.0 0.00 0.35 0.00 84 1058.9
20260901023021 63 315 99.1 0.0 0.00 0.35 0.00 84 1058.7
20260901022407 63 315 99.1 0.0 0.00 0.35 0.00 84 1058.8
20260901021752 63 315 99.1 0.0 0.00 0.35 0.00 84 1058.8
20260901021200 63 315 99.1 0.0 0.00 0.35 0.00 84 1058.7
20260901020543 63 315 99.1 0.0 0.00 0.35 0.00 85 1058.7
20260901015956 63 315 99.1 0.0 0.00 0.37 0.00 85 1058.7
20260901015412 63 315 99.1 0.0 0.00 0.37 0.00 85 1058.7
20260901014808 63 315 99.1 0.0 0.00 0.37 0.00 85 1058.7
20260901014144 63 315 99.1 0.0 0.00 0.37 0.00 85 1058.7
20260901013530 63 315 99.1 0.0 0.00 0.37 0.00 86 1058.5
20260901012916 63 315 99.1 0.0 0.00 0.37 0.00 85 1058.3
20260901012309 63 315 99.1 0.0 0.00 0.37 0.00 86 1058.4
20260901011704 63 315 99.1 0.0 0.00 0.37 0.00 86 1058.4
20260901011050 63 315 99.1 0.0 0.00 0.37 0.00 86 1058.4
20260901010443 63 315 99.1 0.0 0.00 0.37 0.00 86 1058.3
20260901005514 63 315 99.1 0.0 0.00 0.39 0.00 86 1058.2
20260901004901 64 315 99.1 0.0 0.00 0.39 0.00 87 1058.2
20260901004246 64 315 99.1 0.0 0.00 0.39 0.00 87 1058.2
20260901003632 64 315 99.1 0.0 0.00 0.39 0.00 87 1058.1
20260901003019 63 315 99.1 0.0 0.00 0.39 0.00 87 1058.1
20260901002405 63 315 99.1 0.0 0.00 0.39 0.00 88 1058.1
20260901001745 63 315 99.1 0.0 0.00 0.39 0.00 89 1058.1
20260901001121 63 315 99.1 0.0 0.00 0.39 0.00 90 1058.0
20260901000516 63 315 99.1 0.0 0.00 0.39 0.00 90 1058.0
20260831235907 63 315 99.1 0.0 0.02 0.39 0.00 90 1057.9
20260831235251 63 315 99.1 0.0 0.02 0.39 0.00 90 1058.0
20260831234638 62 315 99.1 0.0 0.02 0.39 0.00 90 1057.9
20260831234041 62 315 99.1 0.0 0.02 0.39 0.00 90 1057.9
20260831233411 62 315 99.1 0.0 0.02 0.39 0.00 90 1057.8
20260831232749 62 315 99.1 0.0 0.02 0.39 0.00 89 1057.8
20260831232111 62 315 99.1 0.0 0.02 0.39 0.00 89 1057.9
20260831231459 62 315 99.1 0.0 0.02 0.39 0.00 89 1057.8
20260831230844 62 315 99.1 0.0 0.02 0.39 0.00 89 1057.8
20260831230254 63 315 99.1 0.0 0.02 0.39 0.00 91 1057.8
20260831225646 62 315 99.1 0.0 0.00 0.37 0.00 91 1057.6
20260831225038 62 315 99.1 0.0 0.00 0.37 0.00 91 1057.6
20260831224432 62 315 99.1 0.0 0.00 0.37 0.00 92 1057.5
20260831223833 62 315 99.1 0.0 0.00 0.37 0.00 92 1057.5
20260831223228 62 315 99.1 0.0 0.00 0.37 0.00 92 1057.5
20260831222606 62 315 99.1 0.0 0.00 0.37 0.00 91 1057.4
20260831222000 62 315 99.1 0.0 0.00 0.37 0.00 91 1057.4
20260831221416 62 315 99.1 0.0 0.00 0.37 0.00 91 1057.3
20260831220833 62 315 4.3 0.0 0.00 0.37 0.00 91 1057.3
20260831220701 61 292 3.5 0.0 0.00 0.37 0.00 91 1057.4
20260831220556 62 247 7.0 0.0 0.00 0.37 0.00 91 1057.4
20260831220449 62 292 5.2 0.0 0.00 0.37 0.00 91 1057.4
20260831220343 62 270 2.6 0.0 0.00 0.37 0.00 91 1057.4
20260831220222 62 292 0.0 0.0 0.00 0.37 0.00 91 1057.3
20260831220108 62 315 4.3 0.0 0.00 0.37 0.00 90 1057.4
20260831215954 62 292 6.1 0.0 0.00 0.37 0.00 90 1057.3
20260831215848 62 315 2.6 0.0 0.00 0.37 0.00 90 1057.5
20260831215743 62 0 6.1 0.0 0.00 0.37 0.00 90 1057.4
20260831215621 62 315 6.1 0.0 0.00 0.37 0.00 90 1057.5
20260831215404 63 315 11.3 0.0 0.00 0.37 0.00 91 1057.5
20260831215207 62 292 7.0 0.0 0.00 0.37 0.00 92 1057.4
20260831215038 62 292 4.3 0.0 0.00 0.37 0.00 92 1057.3
20260831214844 62 247 8.7 0.0 0.00 0.37 0.00 92 1057.3
20260831214733 62 315 2.6 0.0 0.00 0.37 0.00 92 1057.3
20260831214618 62 337 3.5 0.0 0.00 0.37 0.00 92 1057.3
20260831214505 62 292 5.2 0.0 0.00 0.37 0.00 92 1057.4
20260831214354 62 292 4.3 0.0 0.00 0.37 0.00 92 1057.3
20260831214248 62 315 3.5 0.0 0.00 0.37 0.00 92 1057.3
20260831214135 62 292 6.1 0.0 0.00 0.37 0.00 92 1057.2
20260831214029 62 292 7.0 0.0 0.00 0.37 0.00 92 1057.1
20260831213924 62 337 2.6 0.0 0.00 0.37 0.00 92 1057.1
20260831213811 62 315 2.6 0.0 0.00 0.37 0.00 92 1057.1
20260831213704 62 292 3.5 0.0 0.00 0.37 0.00 92 1057.1
20260831213546 62 292 3.5 0.0 0.00 0.37 0.00 92 1057.2
20260831213441 62 292 3.5 0.0 0.00 0.37 0.00 92 1057.2
20260831213336 62 292 3.5 0.0 0.00 0.37 0.00 92 1057.1
20260831213230 62 315 5.2 0.0 0.00 0.37 0.00 92 1057.1
20260831213116 62 315 3.5 0.0 0.00 0.37 0.00 92 1057.2
20260831212947 62 270 6.1 0.0 0.00 0.37 0.00 92 1057.1
20260831212834 62 315 3.5 0.0 0.00 0.37 0.00 92 1057.1
20260831212721 62 292 4.3 0.0 0.00 0.37 0.00 92 1057.1
20260831212559 62 0 3.5 0.0 0.00 0.37 0.00 92 1057.1
20260831212430 62 292 6.1 0.0 0.00 0.37 0.00 92 1057.1
20260831212311 61 337 2.6 0.0 0.00 0.37 0.00 92 1057.1
20260831212205 62 292 1.7 0.0 0.00 0.37 0.00 92 1057.1
20260831212059 62 315 0.0 0.0 0.00 0.37 0.00 92 1057.1
20260831211946 62 337 3.5 0.0 0.00 0.37 0.00 92 1057.0
20260831211824 62 315 0.9 0.0 0.00 0.37 0.00 92 1057.1
20260831211704 62 292 3.5 0.0 0.00 0.37 0.00 92 1057.0
20260831211601 62 292 2.6 0.0 0.00 0.37 0.00 92 1057.0
20260831211453 62 292 5.2 0.0 0.00 0.37 0.00 92 1057.0
20260831211341 62 270 1.7 0.0 0.00 0.37 0.00 92 1057.0
20260831211219 62 292 1.7 0.0 0.00 0.37 0.00 92 1056.9
20260831211106 62 292 5.2 0.0 0.00 0.37 0.00 92 1056.9
20260831210938 62 337 5.2 0.0 0.00 0.37 0.00 92 1056.9
20260831210831 62 292 1.7 0.0 0.00 0.37 0.00 92 1056.9
20260831210710 62 337 2.6 0.0 0.00 0.37 0.00 92 1056.9
20260831210550 62 315 0.9 0.0 0.00 0.37 0.00 92 1056.8
20260831210437 62 270 3.5 0.0 0.00 0.37 0.00 92 1056.8
20260831210332 62 315 3.5 0.0 0.00 0.37 0.00 92 1056.8
20260831210226 62 270 3.5 0.0 0.00 0.37 0.00 92 1056.8
20260831210113 62 292 5.2 0.0 0.00 0.37 0.00 92 1056.9
20260831205953 62 270 3.5 0.0 0.00 0.37 0.00 93 1056.8
20260831205838 62 315 1.7 0.0 0.00 0.37 0.00 92 1056.7
20260831205725 62 292 3.5 0.0 0.00 0.37 0.00 92 1056.7
20260831205604 62 292 1.7 0.0 0.00 0.37 0.00 92 1056.7
20260831205452 62 315 2.6 0.0 0.00 0.37 0.00 92 1056.8
20260831205339 62 315 6.1 0.0 0.00 0.37 0.00 92 1056.8
20260831205217 62 315 4.3 0.0 0.00 0.37 0.00 92 1056.7
20260831205055 62 270 2.6 0.0 0.00 0.37 0.00 92 1056.7
20260831204934 62 292 2.6 0.0 0.00 0.37 0.00 93 1056.7
20260831204815 62 315 2.6 0.0 0.00 0.37 0.00 93 1056.7
20260831204708 62 292 1.7 0.0 0.00 0.37 0.00 93 1056.7
20260831204556 62 315 2.6 0.0 0.00 0.37 0.00 93 1056.6
20260831204449 62 292 5.2 0.0 0.00 0.37 0.00 93 1056.6
20260831204330 62 337 7.0 0.0 0.00 0.37 0.00 93 1056.6
20260831204200 62 0 0.0 0.0 0.00 0.37 0.00 93 1056.6
20260831204054 62 22 1.7 0.0 0.00 0.37 0.00 93 1056.6
20260831203941 62 247 1.7 0.0 0.02 0.37 0.00 93 1056.5
20260831203819 62 315 10.4 0.0 0.02 0.37 0.00 93 1056.4
20260831203650 62 247 3.5 0.0 0.02 0.37 0.00 93 1056.5
20260831203529 62 292 5.2 0.0 0.02 0.37 0.00 93 1056.4
20260831203407 62 270 2.6 0.0 0.02 0.37 0.00 93 1056.4
20260831203239 62 270 5.2 0.0 0.02 0.37 0.00 93 1056.4
20260831203117 62 315 6.1 0.0 0.02 0.37 0.00 93 1056.3
20260831203007 62 292 5.2 0.0 0.02 0.37 0.00 93 1056.4
20260831202900 62 315 1.7 0.0 0.02 0.37 0.00 93 1056.3
20260831202754 62 292 7.0 0.0 0.02 0.37 0.00 93 1056.3
20260831202641 62 315 3.5 0.0 0.02 0.37 0.00 93 1056.3
20260831202519 62 337 3.5 0.0 0.02 0.37 0.00 93 1056.3
20260831202350 62 315 7.8 0.0 0.04 0.37 0.00 93 1056.3
20260831202229 61 315 6.1 0.0 0.04 0.37 0.00 93 1056.2
20260831202108 62 315 2.6 0.0 0.04 0.37 0.00 93 1056.2
20260831201946 62 270 7.8 0.0 0.04 0.37 0.00 93 1056.2
20260831201819 62 292 3.5 0.0 0.04 0.37 0.00 93 1056.2
20260831201704 62 315 2.6 0.0 0.04 0.37 0.00 93 1056.2
20260831201543 62 292 5.2 0.0 0.04 0.37 0.00 93 1056.2
20260831201429 62 315 5.2 0.0 0.04 0.37 0.00 93 1056.0
20260831201308 62 292 5.2 0.0 0.04 0.37 0.00 93 1056.1
20260831201139 62 270 3.5 0.0 0.04 0.37 0.00 93 1056.1
20260831201020 62 315 4.3 0.0 0.04 0.37 0.00 93 1056.0
20260831200904 62 292 2.6 0.0 0.04 0.37 0.00 93 1056.0
20260831200746 62 337 1.7 0.0 0.04 0.37 0.00 93 1056.0
20260831200638 62 315 7.0 0.0 0.04 0.37 0.00 93 1056.1
20260831200509 62 315 4.3 0.0 0.04 0.37 0.00 93 1056.0
20260831200356 62 292 4.3 0.0 0.04 0.37 0.00 93 1056.0
20260831200243 62 315 3.5 0.0 0.04 0.37 0.00 93 1056.0
20260831200129 61 337 2.6 0.0 0.04 0.37 0.00 93 1056.0
20260831200009 61 270 4.3 0.0 0.04 0.37 0.00 93 1055.9
20260831195847 61 292 5.2 0.0 0.04 0.37 0.00 93 1055.9
20260831195726 61 315 0.0 0.0 0.04 0.37 0.00 93 1055.9
20260831195613 61 315 3.5 0.0 0.04 0.37 0.00 93 1055.9
20260831195502 61 292 2.6 0.0 0.04 0.37 0.00 93 1055.9
20260831195354 61 292 0.0 0.0 0.04 0.37 0.00 93 1055.9
20260831195234 61 337 7.8 0.0 0.04 0.37 0.00 93 1055.9
20260831195128 61 0 3.5 0.0 0.04 0.37 0.00 93 1055.8
20260831195007 61 270 6.1 0.0 0.04 0.37 0.00 93 1055.8
20260831194847 61 315 7.0 0.0 0.04 0.37 0.00 93 1055.7
20260831194740 61 315 5.2 0.0 0.06 0.37 0.00 92 1055.7
20260831194622 61 0 7.0 0.0 0.06 0.37 0.00 92 1055.8
20260831194513 61 292 3.5 0.0 0.06 0.37 0.00 92 1055.7
20260831194353 61 337 4.3 0.0 0.06 0.37 0.00 92 1055.7
20260831194234 61 292 3.5 0.0 0.06 0.37 0.00 92 1055.7
20260831194127 61 292 11.3 0.0 0.06 0.37 0.00 92 1055.7
20260831194006 61 315 12.2 0.0 0.04 0.35 0.00 92 1055.7
20260831193852 61 292 3.5 0.0 0.04 0.35 0.00 92 1055.6
20260831193734 61 315 6.1 0.0 0.04 0.35 0.00 92 1055.6
20260831193627 61 337 7.0 0.0 0.04 0.35 0.00 92 1055.6
20260831193514 61 315 4.3 0.0 0.04 0.35 0.00 92 1055.6
20260831193352 61 225 5.2 0.0 0.04 0.35 0.00 92 1055.6
20260831193240 61 0 9.6 0.0 0.04 0.35 0.00 92 1055.6
20260831193127 61 0 0.0 0.0 0.04 0.35 0.00 92 1055.6
20260831193020 62 292 5.2 0.0 0.04 0.35 0.00 92 1055.6
20260831192901 62 292 17.4 0.0 0.04 0.35 0.00 92 1055.5
20260831192749 62 292 5.2 0.0 0.04 0.35 0.00 92 1055.5
20260831192641 62 337 5.2 0.0 0.02 0.33 0.00 92 1055.5
20260831192528 62 292 5.2 0.0 0.02 0.33 0.00 92 1055.5
20260831192410 62 270 3.5 0.0 0.02 0.33 0.00 92 1055.3
20260831192305 62 270 5.2 0.0 0.02 0.33 0.00 92 1055.4
20260831192142 62 315 5.2 0.0 0.02 0.33 0.00 92 1055.3
20260831192035 62 337 4.3 0.0 0.02 0.33 0.00 92 1055.2
20260831191909 62 270 5.2 0.0 0.02 0.33 0.00 92 1055.3
20260831191754 62 315 0.0 0.0 0.02 0.33 0.00 92 1055.2
20260831191649 62 337 6.1 0.0 0.02 0.33 0.00 92 1055.2
20260831191519 62 315 9.6 0.0 0.02 0.33 0.00 92 1055.2
20260831191406 62 337 5.2 0.0 0.02 0.33 0.00 92 1055.2
20260831191252 62 315 7.0 0.0 0.02 0.33 0.00 92 1055.2
20260831191134 62 292 6.1 0.0 0.02 0.33 0.00 92 1055.2
20260831191026 62 292 4.3 0.0 0.02 0.33 0.00 92 1055.1
20260831190913 62 315 1.7 0.0 0.02 0.33 0.00 92 1055.1
20260831190801 62 270 5.2 0.0 0.02 0.33 0.00 92 1055.1
20260831190639 62 0 4.3 0.0 0.02 0.33 0.00 92 1055.1
20260831190520 62 315 2.6 0.0 0.02 0.33 0.00 92 1055.1
20260831190405 62 315 0.0 0.0 0.02 0.33 0.00 92 1055.1
20260831190253 62 292 5.2 0.0 0.02 0.33 0.00 92 1055.0
20260831190146 62 315 7.0 0.0 0.02 0.33 0.00 92 1055.0
20260831190033 62 315 5.2 0.0 0.02 0.33 0.00 92 1055.1
20260831185905 62 292 5.2 0.0 0.02 0.33 0.00 92 1055.0
20260831185800 62 292 0.0 0.0 0.02 0.33 0.00 92 1055.0
20260831185646 62 337 4.3 0.0 0.02 0.33 0.00 92 1055.0
20260831185525 62 292 3.5 0.0 0.02 0.33 0.00 92 1054.9
20260831185414 62 315 0.0 0.0 0.02 0.33 0.00 92 1054.8
20260831185309 62 315 3.5 0.0 0.02 0.33 0.00 92 1054.9
20260831185202 62 315 1.7 0.0 0.02 0.33 0.00 92 1054.9
20260831185049 62 315 9.6 0.0 0.00 0.31 0.00 91 1055.1
20260831184943 62 337 4.3 0.0 0.00 0.31 0.00 91 1054.9
20260831184837 62 315 9.6 0.0 0.00 0.31 0.00 91 1054.9
20260831184731 62 315 5.2 0.0 0.00 0.31 0.00 91 1054.8
20260831184625 62 292 7.8 0.0 0.00 0.31 0.00 91 1054.8
20260831184520 62 270 2.6 0.0 0.00 0.31 0.00 91 1054.8
20260831184406 62 315 5.2 0.0 0.00 0.31 0.00 91 1054.8
20260831184245 62 292 14.8 0.0 0.00 0.31 0.00 91 1054.7
20260831184139 62 292 7.8 0.0 0.00 0.31 0.00 91 1054.8
20260831184025 62 270 6.1 0.0 0.00 0.31 0.00 91 1054.6
20260831183917 62 315 5.2 0.0 0.04 0.31 0.00 91 1054.6
20260831183748 62 292 6.1 0.0 0.04 0.31 0.00 91 1054.6
20260831183636 62 292 7.0 0.0 0.04 0.31 0.00 91 1054.6
20260831183529 62 315 3.5 0.0 0.08 0.31 0.00 91 1054.5
20260831183423 62 0 1.7 0.0 0.08 0.31 0.00 91 1054.4
20260831183305 62 270 3.5 0.0 0.08 0.31 0.00 91 1054.4
20260831183157 62 225 2.6 0.0 0.10 0.31 0.00 91 1054.4
20260831183037 62 292 4.3 0.0 0.10 0.31 0.00 91 1054.4
20260831182931 62 337 0.9 0.0 0.10 0.31 0.00 91 1054.2
20260831182810 62 225 5.2 0.0 0.12 0.31 0.00 91 1054.3
20260831182648 62 315 6.1 0.0 0.12 0.31 0.00 91 1054.3
20260831182543 62 337 4.3 0.0 0.12 0.31 0.00 91 1054.3
20260831182436 62 247 8.7 0.0 0.12 0.31 0.00 91 1054.2
20260831182331 62 270 7.0 0.0 0.12 0.31 0.00 92 1054.2
20260831182225 62 315 6.1 0.0 0.12 0.31 0.00 92 1054.2
20260831182113 62 337 2.6 0.0 0.12 0.31 0.00 92 1054.2
20260831182007 62 292 8.7 0.0 0.12 0.31 0.00 92 1054.1
20260831181845 62 270 5.2 0.0 0.12 0.31 0.00 92 1054.2
20260831181733 62 315 6.1 0.0 0.12 0.31 0.00 92 1054.1
20260831181619 62 292 3.5 0.0 0.12 0.31 0.00 92 1054.1
20260831181507 62 315 11.3 0.0 0.12 0.31 0.00 92 1054.1
20260831181401 62 315 8.7 0.0 0.12 0.31 0.00 92 1054.1
20260831181250 62 315 11.3 0.0 0.12 0.31 0.00 92 1054.1
20260831181143 62 337 6.1 0.0 0.12 0.31 0.00 92 1054.1
20260831181022 62 292 2.6 0.0 0.12 0.31 0.00 92 1054.1
20260831180909 62 315 4.3 0.0 0.12 0.31 0.00 92 1054.1
20260831180755 62 292 6.1 0.0 0.12 0.31 0.00 92 1054.0
20260831180643 62 315 5.2 0.0 0.12 0.31 0.00 92 1054.0
20260831180539 61 247 7.8 0.0 0.12 0.31 0.00 92 1054.0
20260831180433 61 0 1.7 0.0 0.12 0.31 0.00 92 1054.0
20260831180328 61 337 3.5 0.0 0.12 0.31 0.00 92 1053.9
20260831180222 61 292 4.3 0.0 0.12 0.31 0.00 92 1053.9
20260831180111 61 315 8.7 0.0 0.12 0.31 0.00 92 1053.9
20260831175956 61 292 16.5 0.0 0.12 0.31 0.00 92 1054.0
20260831175835 61 337 5.2 0.0 0.12 0.31 0.00 92 1053.9
20260831175717 61 247 7.0 0.0 0.12 0.31 0.00 92 1053.9
20260831175609 61 270 6.1 0.0 0.12 0.31 0.00 92 1053.8
20260831175455 61 270 3.5 0.0 0.12 0.31 0.00 91 1053.8
20260831175334 61 292 0.0 0.0 0.12 0.31 0.00 91 1053.7
20260831175228 61 292 8.7 0.0 0.12 0.31 0.00 91 1053.8
20260831175116 61 292 5.2 0.0 0.12 0.31 0.00 91 1053.8
20260831174959 61 315 3.5 0.0 0.12 0.31 0.00 91 1053.8
20260831174846 61 270 4.3 0.0 0.12 0.31 0.00 91 1053.7
20260831174732 61 270 10.4 0.0 0.12 0.31 0.00 90 1053.6
20260831174620 61 315 6.1 0.0 0.12 0.31 0.00 90 1053.7
20260831174512 61 292 6.1 0.0 0.12 0.31 0.00 91 1053.7
20260831174350 61 225 4.3 0.0 0.10 0.29 0.00 91 1053.6
20260831174245 61 337 16.5 0.0 0.08 0.26 0.00 91 1053.7
20260831174138 61 315 4.3 0.0 0.08 0.26 0.00 90 1053.7
20260831174034 61 270 6.1 0.0 0.08 0.26 0.00 90 1053.6
20260831173928 61 247 7.8 0.0 0.08 0.24 0.00 90 1053.6
20260831173814 61 270 0.0 0.0 0.06 0.22 0.00 90 1053.6
20260831173702 61 247 5.2 0.0 0.06 0.22 0.00 89 1053.5
20260831173541 61 270 4.3 0.0 0.06 0.22 0.00 89 1053.5
20260831173436 61 225 9.6 0.0 0.06 0.22 0.00 89 1053.5
20260831173330 62 270 7.8 0.0 0.04 0.20 0.00 89 1053.6
20260831173209 62 315 6.1 0.0 0.04 0.20 0.00 89 1053.5
20260831173057 62 292 0.9 0.0 0.04 0.20 0.00 89 1053.5
20260831172950 62 292 1.7 0.0 0.02 0.18 0.00 89 1053.6
20260831172831 62 270 9.6 0.0 0.02 0.18 0.00 89 1053.5
20260831172724 62 202 7.8 0.0 0.02 0.18 0.00 89 1053.5
20260831172506 62 247 7.0 0.0 0.02 0.18 0.00 88 1053.4
20260831172339 62 247 7.0 0.0 0.02 0.18 0.00 88 1053.5
20260831172234 62 270 13.0 0.0 0.02 0.18 0.00 88 1053.5
20260831172121 62 292 6.1 0.0 0.02 0.18 0.00 88 1053.5
20260831172016 62 247 7.8 0.0 0.02 0.18 0.00 88 1053.4
20260831171911 62 337 7.8 0.0 0.02 0.18 0.00 88 1053.4
20260831171757 62 292 10.4 0.0 0.02 0.18 0.00 88 1053.4
20260831171651 62 270 4.3 0.0 0.02 0.18 0.00 88 1053.4
20260831171546 63 247 7.8 0.0 0.02 0.18 0.00 88 1053.3
20260831171433 63 292 7.8 0.0 0.02 0.18 0.00 89 1053.3
20260831171321 63 270 6.1 0.0 0.02 0.18 0.00 89 1053.3
20260831171214 63 337 6.1 0.0 0.02 0.18 0.00 89 1053.2
20260831171101 63 270 12.2 0.0 0.02 0.18 0.00 89 1053.3
20260831170940 63 270 13.0 0.0 0.02 0.18 0.00 89 1053.3
20260831170828 62 292 9.6 0.0 0.02 0.18 0.00 89 1053.2
20260831170705 62 292 5.2 0.0 0.02 0.18 0.00 90 1053.2
20260831170552 62 292 7.0 0.0 0.02 0.18 0.00 90 1053.2
20260831170423 62 270 8.7 0.0 0.02 0.18 0.00 90 1053.3
20260831170310 62 292 6.1 0.0 0.02 0.18 0.00 90 1053.3
20260831170205 62 247 6.1 0.0 0.02 0.18 0.00 90 1053.2
20260831170043 62 247 3.5 0.0 0.02 0.18 0.00 90 1053.4
20260831165923 62 315 9.6 0.0 0.02 0.18 0.00 90 1053.4
20260831165808 62 270 7.0 0.0 0.02 0.18 0.00 90 1053.3
20260831165639 62 247 12.2 0.0 0.02 0.18 0.00 89 1053.3
20260831165533 62 292 10.4 0.0 0.02 0.18 0.00 89 1053.4
20260831165428 62 270 4.3 0.0 0.02 0.18 0.00 89 1053.2
20260831165322 62 247 6.1 0.0 0.02 0.18 0.00 89 1053.4
20260831165155 62 270 4.3 0.0 0.04 0.18 0.00 89 1053.4
20260831165048 62 315 10.4 0.0 0.04 0.18 0.00 88 1053.4
20260831164935 62 247 9.6 0.0 0.04 0.18 0.00 88 1053.4
20260831164830 62 270 8.7 0.0 0.04 0.18 0.00 88 1053.3
20260831164710 62 270 5.2 0.0 0.08 0.18 0.00 88 1053.4
20260831164606 62 247 6.1 0.0 0.08 0.18 0.00 88 1053.3
20260831164459 62 225 5.2 0.0 0.08 0.18 0.00 87 1053.2
20260831164337 62 247 5.2 0.0 0.10 0.18 0.00 87 1053.3
20260831164218 62 270 7.0 0.0 0.08 0.16 0.00 86 1053.2
20260831164113 63 225 4.3 0.0 0.08 0.16 0.00 86 1053.2
20260831164007 63 292 7.0 0.0 0.08 0.16 0.00 86 1053.1
20260831163852 63 247 14.8 0.0 0.10 0.16 0.00 85 1053.1
20260831163746 63 292 5.2 0.0 0.10 0.16 0.00 84 1053.2
20260831163633 64 292 7.8 0.0 0.10 0.16 0.00 84 1053.0
20260831163528 64 292 10.4 0.0 0.10 0.16 0.00 84 1053.1
20260831163414 64 292 9.6 0.0 0.10 0.16 0.00 83 1053.1
20260831163255 64 292 5.2 0.0 0.10 0.16 0.00 83 1053.0
20260831163148 64 270 6.1 0.0 0.10 0.16 0.00 83 1053.1
20260831163035 64 270 9.6 0.0 0.10 0.16 0.00 83 1053.1
20260831162916 64 270 13.9 0.0 0.10 0.16 0.00 84 1053.0
20260831162801 64 270 7.0 0.0 0.10 0.16 0.00 84 1053.1
20260831162648 64 247 8.7 0.0 0.10 0.16 0.00 85 1053.1
20260831162541 64 292 4.3 0.0 0.10 0.16 0.00 85 1053.0
20260831162420 64 292 4.3 0.0 0.10 0.16 0.00 85 1053.0
20260831162258 64 270 5.2 0.0 0.10 0.16 0.00 85 1053.0
20260831162136 64 247 3.5 0.0 0.10 0.16 0.00 85 1053.0
20260831162030 64 292 7.0 0.0 0.10 0.16 0.00 85 1053.0
20260831161909 64 270 5.2 0.0 0.10 0.16 0.00 86 1053.0
20260831161803 64 247 4.3 0.0 0.10 0.16 0.00 86 1053.0
20260831161658 64 292 7.8 0.0 0.10 0.16 0.00 86 1053.0
20260831161552 63 270 9.6 0.0 0.10 0.16 0.00 86 1053.0
20260831161437 63 292 7.0 0.0 0.10 0.16 0.00 86 1053.0
20260831161326 63 270 12.2 0.0 0.10 0.16 0.00 86 1053.0
20260831161209 63 270 9.6 0.0 0.10 0.16 0.00 86 1053.0
20260831161059 63 270 13.0 0.0 0.10 0.16 0.00 86 1053.0
20260831160952 63 292 10.4 0.0 0.10 0.16 0.00 86 1052.9
20260831160838 63 247 9.6 0.0 0.10 0.16 0.00 87 1053.0
20260831160725 63 225 7.0 0.0 0.10 0.16 0.00 87 1053.0
20260831160620 63 247 3.5 0.0 0.10 0.16 0.00 87 1052.9
20260831160509 63 292 6.1 0.0 0.10 0.16 0.00 87 1052.9
20260831160402 63 315 8.7 0.0 0.10 0.16 0.00 87 1052.9
20260831160240 62 292 8.7 0.0 0.10 0.16 0.00 87 1052.9
20260831160128 62 270 7.8 0.0 0.10 0.16 0.00 87 1053.0
20260831160014 62 292 7.8 0.0 0.10 0.16 0.00 87 1052.9
20260831155853 62 247 5.2 0.0 0.10 0.16 0.00 87 1052.9
20260831155740 62 270 13.0 0.0 0.10 0.16 0.00 87 1052.8
20260831155626 62 315 2.6 0.0 0.10 0.16 0.00 86 1052.8
20260831155515 62 292 2.6 0.0 0.10 0.16 0.00 85 1052.9
20260831155408 62 292 7.8 0.0 0.10 0.16 0.00 85 1052.9
20260831155256 62 225 3.5 0.0 0.10 0.16 0.00 85 1052.9
20260831155142 62 247 4.3 0.0 0.08 0.14 0.00 84 1052.9
20260831155029 63 270 3.5 0.0 0.06 0.12 0.00 83 1052.9
20260831154915 63 270 4.3 0.0 0.06 0.12 0.00 82 1052.9
20260831154802 64 270 7.8 0.0 0.04 0.10 0.00 82 1052.9
20260831154641 64 270 7.8 0.0 0.04 0.10 0.00 82 1053.0
20260831154528 64 247 7.0 0.0 0.02 0.08 0.00 81 1052.9
20260831154424 64 247 2.6 0.0 0.02 0.08 0.00 81 1052.8
20260831154318 65 270 3.5 0.0 0.00 0.06 0.00 81 1052.7
20260831154213 64 225 0.0 0.0 0.00 0.06 0.00 81 1052.9
20260831154108 64 0 3.5 0.0 0.00 0.06 0.00 81 1052.7
20260831153938 64 247 4.3 0.0 0.00 0.06 0.00 81 1052.8
20260831153825 64 315 8.7 0.0 0.00 0.06 0.00 81 1052.6
20260831153720 64 292 5.2 0.0 0.00 0.06 0.00 81 1052.7
20260831153607 64 270 10.4 0.0 0.00 0.06 0.00 81 1052.7
20260831153446 64 247 12.2 0.0 0.00 0.06 0.00 81 1052.6
20260831153333 64 225 7.8 0.0 0.00 0.06 0.00 81 1052.5
20260831153212 64 270 5.2 0.0 0.00 0.06 0.00 81 1052.8
20260831153058 64 270 7.8 0.0 0.00 0.06 0.00 80 1052.6
20260831152945 64 292 0.0 0.0 0.00 0.06 0.00 80 1052.6
20260831152840 64 292 7.0 0.0 0.00 0.06 0.00 79 1052.7
20260831152735 64 135 0.0 0.0 0.00 0.06 0.00 79 1052.6
20260831152629 64 315 3.5 0.0 0.00 0.06 0.00 79 1052.5
20260831152522 64 292 2.6 0.0 0.00 0.06 0.00 79 1052.6
20260831152352 64 180 1.7 0.0 0.00 0.06 0.00 79 1052.6
20260831152239 64 247 7.8 0.0 0.00 0.06 0.00 78 1052.6
20260831152119 64 315 5.2 0.0 0.00 0.06 0.00 78 1052.4
20260831152004 64 270 3.5 0.0 0.00 0.06 0.00 78 1052.4
20260831151853 63 247 8.7 0.0 0.00 0.06 0.00 77 1052.6
20260831151738 63 270 5.2 0.0 0.00 0.06 0.00 76 1052.5
20260831151633 63 247 5.2 0.0 0.00 0.06 0.00 75 1052.5
20260831151512 64 225 7.8 0.0 0.00 0.06 0.00 74 1052.5
20260831151359 64 247 7.0 0.0 0.00 0.06 0.00 73 1052.5
20260831151245 64 247 7.0 0.0 0.00 0.06 0.00 73 1052.6
20260831151126 64 292 6.1 0.0 0.00 0.06 0.00 73 1052.7
20260831151022 65 225 7.8 0.0 0.00 0.06 0.00 73 1052.6
20260831150914 65 247 11.3 0.0 0.00 0.06 0.00 72 1052.6
20260831150800 65 247 13.0 0.0 0.00 0.06 0.00 72 1052.4
20260831150655 66 292 7.8 0.0 0.00 0.06 0.00 72 1052.5
20260831150541 66 270 5.2 0.0 0.00 0.06 0.00 71 1052.4
20260831150429 66 270 5.2 0.0 0.00 0.06 0.00 70 1052.5
20260831150315 67 247 9.6 0.0 0.00 0.06 0.00 68 1052.5
20260831150203 67 292 7.8 0.0 0.00 0.06 0.00 68 1052.5
20260831150057 67 247 7.0 0.0 0.00 0.06 0.00 69 1052.3
20260831145944 68 247 9.6 0.0 0.00 0.06 0.00 70 1052.3
20260831145834 68 270 5.2 0.0 0.00 0.06 0.00 70 1052.4
20260831145719 68 337 8.7 0.0 0.00 0.06 0.00 70 1052.3
20260831145613 68 292 5.2 0.0 0.00 0.06 0.00 70 1052.4
20260831145459 68 247 5.2 0.0 0.00 0.06 0.00 69 1052.3
20260831145339 68 270 5.2 0.0 0.00 0.06 0.00 69 1052.3
20260831145225 69 315 7.0 0.0 0.00 0.06 0.00 69 1052.3
20260831145106 69 337 8.7 0.0 0.00 0.06 0.00 69 1052.3
20260831144958 68 247 13.0 0.0 0.00 0.06 0.00 69 1052.4
20260831144839 68 270 7.8 0.0 0.00 0.06 0.00 69 1052.4
20260831144734 68 247 9.6 0.0 0.00 0.06 0.00 69 1052.3
20260831144620 68 270 3.5 0.0 0.00 0.06 0.00 69 1052.2
20260831144515 68 270 6.1 0.0 0.00 0.06 0.00 68 1052.2
20260831144353 68 315 2.6 0.0 0.00 0.06 0.00 68 1052.2
20260831144243 69 292 9.6 0.0 0.00 0.06 0.00 68 1052.2
20260831144136 69 270 11.3 0.0 0.00 0.06 0.00 68 1052.1
20260831144031 69 292 4.3 0.0 0.00 0.06 0.00 69 1052.3
20260831143918 69 270 5.2 0.0 0.00 0.06 0.00 69 1052.2
20260831143812 68 270 3.5 0.0 0.00 0.06 0.00 69 1052.2
20260831143651 68 337 3.5 0.0 0.00 0.06 0.00 69 1052.2
20260831143521 68 270 7.0 0.0 0.00 0.06 0.00 69 1052.1
20260831143408 68 270 11.3 0.0 0.00 0.06 0.00 70 1052.1
20260831143248 68 247 4.3 0.0 0.00 0.06 0.00 69 1052.1
20260831143136 69 270 5.2 0.0 0.00 0.06 0.00 69 1052.1
20260831143022 69 247 5.2 0.0 0.00 0.06 0.00 69 1052.0
20260831142917 69 247 4.3 0.0 0.00 0.06 0.00 68 1052.1
20260831142811 69 247 11.3 0.0 0.00 0.06 0.00 69 1052.1
20260831142700 69 270 11.3 0.0 0.00 0.06 0.00 69 1052.1
20260831142555 69 270 6.1 0.0 0.00 0.06 0.00 69 1052.0
20260831142448 69 270 4.3 0.0 0.00 0.06 0.00 70 1052.0
20260831142335 69 270 5.2 0.0 0.00 0.06 0.00 69 1052.1
20260831142230 69 225 5.2 0.0 0.00 0.06 0.00 69 1052.0
20260831142109 69 270 0.0 0.0 0.00 0.06 0.00 69 1052.0
20260831141955 69 292 5.2 0.0 0.00 0.06 0.00 68 1052.1
20260831141843 69 315 13.0 0.0 0.00 0.06 0.00 67 1052.1
20260831141737 69 270 8.7 0.0 0.00 0.06 0.00 67 1052.1
20260831141615 70 247 7.0 0.0 0.00 0.06 0.00 67 1052.1
20260831141455 70 270 9.6 0.0 0.00 0.06 0.00 68 1052.0
20260831141350 70 270 7.8 0.0 0.00 0.06 0.00 69 1052.1
20260831141245 70 202 3.5 0.0 0.00 0.06 0.00 69 1052.0
20260831141124 70 270 8.7 0.0 0.00 0.06 0.00 69 1052.1
20260831141010 70 202 6.1 0.0 0.00 0.06 0.00 69 1052.0
20260831140858 70 270 5.2 0.0 0.00 0.06 0.00 69 1052.1
20260831140745 70 225 5.2 0.0 0.00 0.06 0.00 68 1052.0
20260831140639 70 202 6.1 0.0 0.00 0.06 0.00 68 1052.0
20260831140526 70 247 6.1 0.0 0.00 0.06 0.00 68 1052.0
20260831140416 70 270 3.5 0.0 0.00 0.06 0.00 68 1052.0
20260831140308 70 225 6.1 0.0 0.00 0.06 0.00 67 1052.0
20260831140155 70 247 5.2 0.0 0.00 0.06 0.00 67 1052.0
20260831140050 70 247 5.2 0.0 0.00 0.06 0.00 67 1051.9
20260831135928 70 315 9.6 0.0 0.00 0.06 0.00 68 1051.9
20260831135815 70 315 0.0 0.0 0.00 0.06 0.00 68 1051.9
20260831135654 70 247 0.0 0.0 0.00 0.06 0.00 68 1051.9
20260831135534 70 270 3.5 0.0 0.00 0.06 0.00 67 1052.0
20260831135428 70 202 3.5 0.0 0.00 0.06 0.00 67 1051.9
20260831135314 70 270 7.0 0.0 0.00 0.06 0.00 68 1052.0
20260831135202 70 270 3.5 0.0 0.00 0.06 0.00 69 1052.1
20260831135049 69 225 2.6 0.0 0.00 0.06 0.00 68 1051.9
20260831134936 69 247 9.6 0.0 0.00 0.06 0.00 68 1052.0
20260831134822 69 180 5.2 0.0 0.00 0.06 0.00 68 1052.0
20260831134709 69 225 0.0 0.0 0.00 0.06 0.00 68 1051.9
20260831134557 69 225 1.7 0.0 0.00 0.06 0.00 68 1052.0
20260831134453 69 337 0.0 0.0 0.00 0.06 0.00 68 1051.9
20260831134338 69 202 6.1 0.0 0.00 0.06 0.00 68 1052.0
20260831134225 69 202 6.1 0.0 0.00 0.06 0.00 68 1052.1
20260831134121 69 225 6.1 0.0 0.00 0.06 0.00 67 1052.2
20260831134007 69 270 7.8 0.0 0.00 0.06 0.00 67 1052.1
20260831133846 69 270 10.4 0.0 0.00 0.06 0.00 67 1052.0
20260831133741 69 315 7.8 0.0 0.00 0.06 0.00 68 1052.1
20260831133636 69 247 5.2 0.0 0.00 0.06 0.00 68 1052.1
20260831133523 69 292 8.7 0.0 0.00 0.06 0.00 68 1052.0
20260831133416 69 270 8.7 0.0 0.00 0.06 0.00 68 1052.0
20260831133257 69 247 5.2 0.0 0.00 0.06 0.00 68 1052.1
20260831133151 69 270 5.2 0.0 0.00 0.06 0.00 68 1051.9
20260831133030 69 202 3.5 0.0 0.00 0.06 0.00 69 1051.9
20260831132925 69 202 5.2 0.0 0.00 0.06 0.00 69 1052.0
20260831132820 69 225 5.2 0.0 0.00 0.06 0.00 69 1051.9
20260831132716 69 225 5.2 0.0 0.00 0.06 0.00 69 1052.0
20260831132610 69 202 0.0 0.0 0.00 0.06 0.00 69 1051.9
20260831132505 68 270 7.8 0.0 0.00 0.06 0.00 69 1051.9
20260831132352 68 202 14.8 0.0 0.00 0.06 0.00 69 1051.9
20260831132240 68 270 6.1 0.0 0.00 0.06 0.00 69 1051.9
20260831132135 68 270 3.5 0.0 0.00 0.06 0.00 69 1051.9
20260831132029 68 270 6.1 0.0 0.00 0.06 0.00 69 1052.0